Weather History for Sulphur, LA

Change the Weather History Date:

Thursday, January 24, 2013

  Actual Average (KLCH) Record (KLCH)
Temperature  
Mean Temperature 61 °F 52 °F  
Max Temperature 71 °F 62 °F 84 °F (1909)
Min Temperature 51 °F 43 °F 12 °F (1948)
Degree Days  
Heating Degree Days 4 13  
Month to date heating degree days 332  
Since 1 July heating degree days 906  
Cooling Degree Days 0 0  
Month to date cooling degree days 0  
Year to date cooling degree days 0  
Growing Degree Days 11 (Base 50)    
Moisture  
Dew Point 59 °F    
Average Humidity 91    
Maximum Humidity 100    
Minimum Humidity 73    
Precipitation  
Precipitation 0.00 in 0.16 in 4.42 in (1920)
Month to date precipitation 4.15  
Year to date precipitation 4.15  
Snow  
Snow 0.00 in 0.00 in T in (2014)
Month to date snowfall 0.0  
Since 1 July snowfall T  
Snow Depth -    
Sea Level Pressure  
Sea Level Pressure 30.26 in    
Wind  
Wind Speed 5 mph (SSE)    
Max Wind Speed 14 mph    
Max Gust Speed 16 mph    
Visibility 7 miles    
Events Fog    
T = Trace of Precipitation, MM = Missing Value Source: NWS Daily Summary

Daily Weather History Graph

Daily Weather History Graph

Search for Another Location

Airport:

Trip Planner

Search our weather history database for the weather conditions in past years. The results will help you decide how hot, cold, wet, or windy it might be!

Date:

Astronomy

Jan. 24, 2013 Rise Set
Actual Time 7:07 AM CST 5:43 PM CST
Civil Twilight 6:42 AM CST 6:09 PM CST
Nautical Twilight 6:13 AM CST 6:38 PM CST
Astronomical Twilight 5:44 AM CST 7:06 PM CST
Moon 3:48 PM CST (1/24) 5:03 AM CST (1/24)
Length of Visible Light 11h 26m
Length of Day
10h 36m
Waxing Gibbous, 94% of the Moon is Illuminated
Jan 24
Waxing Gibbous
Jan 26
Full
Feb 3
Last Quarter
Feb 10
New
Feb 17
First Quarter

Hourly Weather History & Observations

Time (CST) Temp. Dew Point Humidity Pressure Visibility Wind Dir Wind Speed Gust Speed Precip Events Conditions
12:15 AM 55.4 °F 55.4 °F 100% 30.28 in 7.0 mi SSE 3.5 mph - N/A   Clear
12:35 AM 55.4 °F 55.4 °F 100% 30.28 in 7.0 mi Calm Calm - N/A   Clear
12:55 AM 55.4 °F 55.4 °F 100% 30.28 in 4.0 mi Calm Calm - N/A   Clear
1:15 AM 55.4 °F 55.4 °F 100% 30.27 in 1.2 mi SSE 3.5 mph - N/A   Mist
1:35 AM 53.6 °F 53.6 °F 100% 30.27 in 0.5 mi SSE 3.5 mph - N/A Fog Fog
1:55 AM 53.6 °F 53.6 °F 100% 30.27 in 0.8 mi South 3.5 mph - N/A   Mist
2:15 AM 53.6 °F 53.6 °F 100% 30.27 in 0.5 mi SSE 3.5 mph - N/A Fog Fog
2:35 AM 55.4 °F 55.4 °F 100% 30.27 in 1.8 mi SSE 3.5 mph - N/A   Mist
2:55 AM 53.6 °F 53.6 °F 100% 30.27 in 0.8 mi Calm Calm - N/A   Mist
3:15 AM 53.6 °F 53.6 °F 100% 30.26 in 2.0 mi SSE 3.5 mph - N/A   Clear
3:35 AM 53.6 °F 53.6 °F 100% 30.26 in 0.2 mi SSE 3.5 mph - N/A Fog Fog
3:55 AM 53.6 °F 53.6 °F 100% 30.26 in 0.2 mi Calm Calm - N/A Fog Fog
4:15 AM 53.6 °F 53.6 °F 100% 30.26 in 0.2 mi Calm Calm - N/A Fog Fog
4:35 AM 53.6 °F 53.6 °F 100% 30.26 in 0.2 mi Calm Calm - N/A Fog Fog
4:55 AM 51.8 °F 51.8 °F 100% 30.26 in 0.2 mi South 3.5 mph - N/A Fog Fog
5:15 AM 51.8 °F 51.8 °F 100% 30.27 in 0.2 mi South 3.5 mph - N/A Fog Fog
5:35 AM 53.6 °F 53.6 °F 100% 30.27 in 0.2 mi Calm Calm - N/A Fog Fog
5:55 AM 53.6 °F 53.6 °F 100% 30.28 in 0.2 mi SSE 3.5 mph - N/A Fog Fog
6:15 AM 55.4 °F 55.4 °F 100% 30.28 in 0.5 mi SSE 3.5 mph - N/A Fog Fog
6:35 AM 55.4 °F 55.4 °F 100% 30.29 in 1.5 mi SE 3.5 mph - N/A   Overcast
6:55 AM 59.0 °F 59.0 °F 100% 30.29 in 4.0 mi SE 4.6 mph - N/A   Overcast
7:15 AM 59.0 °F 59.0 °F 100% 30.29 in 4.0 mi SSE 4.6 mph - N/A   Overcast
7:35 AM 59.0 °F 59.0 °F 100% 30.30 in 4.0 mi East 3.5 mph - N/A   Overcast
7:55 AM 59.0 °F 59.0 °F 100% 30.31 in 3.0 mi ENE 3.5 mph - N/A   Overcast
8:15 AM 59.0 °F 59.0 °F 100% 30.31 in 4.0 mi East 4.6 mph - N/A   Overcast
8:35 AM 60.8 °F 60.8 °F 100% 30.32 in 5.0 mi Calm Calm - N/A   Overcast
8:55 AM 60.8 °F 60.8 °F 100% 30.32 in 10.0 mi SE 3.5 mph - N/A   Overcast
9:15 AM 60.8 °F 60.8 °F 100% 30.33 in 10.0 mi Calm Calm - N/A   Overcast
9:35 AM 62.6 °F 62.6 °F 100% 30.33 in 10.0 mi SSE 4.6 mph - N/A   Overcast
9:55 AM 62.6 °F 62.6 °F 100% 30.34 in 7.0 mi SSE 5.8 mph - N/A   Overcast
10:15 AM 64.4 °F 62.6 °F 94% 30.34 in 10.0 mi South 5.8 mph - N/A   Overcast
10:35 AM 66.2 °F 62.6 °F 88% 30.33 in 10.0 mi South 4.6 mph - N/A   Overcast
10:55 AM 68.0 °F 62.6 °F 83% 30.33 in 10.0 mi South 5.8 mph - N/A   Overcast
11:15 AM 68.0 °F 62.6 °F 83% 30.32 in 10.0 mi South 9.2 mph - N/A   Overcast
11:35 AM 69.8 °F 62.6 °F 78% 30.31 in 10.0 mi South 9.2 mph - N/A   Overcast
11:55 AM 69.8 °F 62.6 °F 78% 30.31 in 10.0 mi South 10.4 mph - N/A   Overcast
12:15 PM 69.8 °F 62.6 °F 78% 30.29 in 10.0 mi SSW 9.2 mph - N/A   Overcast
12:35 PM 69.8 °F 62.6 °F 78% 30.28 in 10.0 mi South 11.5 mph - N/A   Overcast
12:55 PM 71.6 °F 62.6 °F 73% 30.27 in 10.0 mi South 11.5 mph - N/A   Overcast
1:15 PM 71.6 °F 62.6 °F 73% 30.26 in 10.0 mi South 11.5 mph - N/A   Overcast
1:35 PM 71.6 °F 62.6 °F 73% 30.25 in 10.0 mi SSW 12.7 mph - N/A   Overcast
1:55 PM 71.6 °F 62.6 °F 73% 30.24 in 10.0 mi South 12.7 mph - N/A   Overcast
2:15 PM 71.6 °F 62.6 °F 73% 30.23 in 10.0 mi SSW 13.8 mph - N/A   Overcast
2:35 PM 71.6 °F 62.6 °F 73% 30.23 in 10.0 mi South 12.7 mph 16.1 mph N/A   Overcast
2:55 PM 71.6 °F 62.6 °F 73% 30.23 in 10.0 mi South 12.7 mph - N/A   Overcast
3:15 PM 71.6 °F 62.6 °F 73% 30.22 in 10.0 mi South 12.7 mph - N/A   Mostly Cloudy
3:35 PM 69.8 °F 62.6 °F 78% 30.22 in 10.0 mi South 12.7 mph - N/A   Scattered Clouds
3:55 PM 69.8 °F 62.6 °F 78% 30.22 in 10.0 mi South 9.2 mph - N/A   Scattered Clouds
4:15 PM 69.8 °F 62.6 °F 78% 30.22 in 10.0 mi South 9.2 mph - N/A   Scattered Clouds
4:35 PM 68.0 °F 62.6 °F 83% 30.22 in 10.0 mi South 9.2 mph - N/A   Mostly Cloudy
4:55 PM 68.0 °F 62.6 °F 83% 30.21 in 10.0 mi South 10.4 mph - N/A   Overcast
5:15 PM 68.0 °F 60.8 °F 78% 30.22 in 10.0 mi South 9.2 mph - N/A   Mostly Cloudy
5:35 PM 66.2 °F 60.8 °F 83% 30.22 in 10.0 mi South 6.9 mph - N/A   Overcast
5:55 PM 66.2 °F 60.8 °F 83% 30.23 in 10.0 mi South 4.6 mph - N/A   Overcast
6:15 PM 64.4 °F 60.8 °F 88% 30.22 in 10.0 mi SSE 5.8 mph - N/A   Overcast
6:35 PM 64.4 °F 60.8 °F 88% 30.23 in 10.0 mi South 8.1 mph - N/A   Overcast
6:55 PM 64.4 °F 60.8 °F 88% 30.23 in 10.0 mi South 8.1 mph - N/A   Overcast
7:15 PM 64.4 °F 60.8 °F 88% 30.23 in 10.0 mi SSE 8.1 mph - N/A   Overcast
7:35 PM 64.4 °F 60.8 °F 88% 30.23 in 10.0 mi SSE 8.1 mph - N/A   Overcast
7:55 PM 62.6 °F 60.8 °F 94% 30.23 in 10.0 mi SSE 6.9 mph - N/A   Overcast
8:15 PM 62.6 °F 60.8 °F 94% 30.24 in 10.0 mi SE 4.6 mph - N/A   Overcast
8:35 PM 62.6 °F 60.8 °F 94% 30.23 in 10.0 mi SE 9.2 mph - N/A   Overcast
8:55 PM 62.6 °F 60.8 °F 94% 30.22 in 10.0 mi SSE 8.1 mph - N/A   Overcast
9:15 PM 62.6 °F 60.8 °F 94% 30.22 in 10.0 mi SSE 8.1 mph - N/A   Scattered Clouds
9:35 PM 60.8 °F 60.8 °F 100% 30.22 in 10.0 mi SSE 8.1 mph - N/A   Clear
9:55 PM 60.8 °F 60.8 °F 100% 30.22 in 10.0 mi South 5.8 mph - N/A   Clear
10:15 PM 60.8 °F 59.0 °F 94% 30.22 in 10.0 mi South 6.9 mph - N/A   Clear
10:35 PM 60.8 °F 60.8 °F 100% 30.22 in 10.0 mi South 5.8 mph - N/A   Clear
10:55 PM 60.8 °F 59.0 °F 94% 30.22 in 10.0 mi South 4.6 mph - N/A   Clear
11:15 PM 60.8 °F 59.0 °F 94% 30.21 in 10.0 mi South 5.8 mph - N/A   Clear
11:35 PM 60.8 °F 59.0 °F 94% 30.21 in 10.0 mi South 5.8 mph - N/A   Clear
11:55 PM 59.0 °F 59.0 °F 100% 30.22 in 10.0 mi South 3.5 mph - N/A   Clear